Weather History for GMMX - January, 2014

Change the Weather History Date:

Saturday, January 4, 2014

  Actual Average Record
Temperature  
Mean Temperature 54 °F -  
Max Temperature 68 °F 64 °F 75 °F (2007)
Min Temperature 41 °F 42 °F 37 °F (2015)
Degree Days  
Heating Degree Days 10    
Growing Degree Days 4 (Base 50)    
Moisture  
Dew Point 45 °F    
Average Humidity 69    
Maximum Humidity 93    
Minimum Humidity 34    
Precipitation  
Precipitation 0.00 in 0.04 in - ()
Sea Level Pressure  
Sea Level Pressure 30.32 in    
Wind  
Wind Speed 5 mph ()    
Max Wind Speed 9 mph    
Max Gust Speed -    
Visibility 5.5 miles    
Events      
Averages and records for this station are not official NWS values.
T = Trace of Precipitation, MM = Missing Value Source: Averaged Metar Reports

Daily Weather History Graph

Daily Weather History Graph

Search for Another Location

Airport or City:

Trip Planner

Search our weather history database for the weather conditions in past years. The results will help you decide how hot, cold, wet, or windy it might be!

Date:

Astronomy

Jan. 04, 2014 Rise Set
Actual Time 7:32 AM WET 5:41 PM WET
Civil Twilight 7:05 AM WET 6:08 PM WET
Nautical Twilight 6:35 AM WET 6:38 PM WET
Astronomical Twilight 6:05 AM WET 7:08 PM WET
Moon 9:43 AM WET (1/4) 9:30 PM WET (1/4)
Length of Visible Light 11h 03m
Length of Day
10h 09m
Waxing Crescent, 13% of the Moon is Illuminated
Jan 4
Waxing Crescent
Jan 8
First Quarter
Jan 16
Full
Jan 24
Last Quarter
Jan 30
New

Hourly Weather History & Observations

Time (WET) Temp. Windchill Dew Point Humidity Pressure Visibility Wind Dir Wind Speed Gust Speed Precip Events Conditions
12:00 AM 50 °F - 37 °F 49% 30.34 in 6 mi WSW 4.6 mph - -  
12:00 AM 50.0 °F - 35.6 °F 58% 30.30 in - WSW 5.8 mph - N/A   Clear
12:30 AM 50.0 °F - 39.2 °F 66% 30.30 in - WSW 4.6 mph - N/A   Clear
1:00 AM 48.2 °F - 41.0 °F 76% 30.33 in - WSW 4.6 mph - N/A   Clear
1:30 AM 50.0 °F - 44.6 °F 82% 30.33 in - SW 6.9 mph - N/A   Clear
2:00 AM 50.0 °F - 44.6 °F 82% 30.33 in - SW 5.8 mph - N/A   Clear
2:30 AM 50.0 °F - 46.4 °F 87% 30.33 in - SSW 8.1 mph - N/A   Clear
3:00 AM 49 °F - 45 °F 79% 30.35 in 6 mi South 4.6 mph - -  
3:00 AM 50.0 °F - 44.6 °F 82% 30.33 in - South 4.6 mph - N/A   Clear
3:30 AM 48.2 °F - 44.6 °F 87% 30.30 in - SSE 6.9 mph - N/A   Clear
4:00 AM 48.2 °F - 44.6 °F 87% 30.30 in - Variable 1.2 mph - N/A   Clear
4:30 AM 46.4 °F - 42.8 °F 87% 30.30 in 6.2 mi Variable 2.3 mph - N/A   Unknown
5:00 AM 48.2 °F - 42.8 °F 82% 30.30 in 6.2 mi NNE 3.5 mph - N/A   Unknown
5:30 AM 46.4 °F 43.5 °F 42.8 °F 87% 30.30 in - ESE 5.8 mph - N/A   Clear
6:00 AM 45 °F - 43 °F 89% 30.35 in 6 mi SE 3.5 mph - -  
6:00 AM 46.4 °F 45.2 °F 42.8 °F 87% 30.30 in - SE 3.5 mph - N/A   Clear
6:30 AM 44.6 °F 43.1 °F 41.0 °F 87% 30.33 in 5.0 mi East 3.5 mph - N/A   Unknown
7:00 AM 44.6 °F 43.1 °F 42.8 °F 93% 30.33 in - NNE 3.5 mph - N/A   Clear
7:30 AM 44.6 °F 43.1 °F 42.8 °F 93% 30.30 in - SE 3.5 mph - N/A   Clear
8:00 AM 44.6 °F - 42.8 °F 93% 30.30 in 5.0 mi SE 2.3 mph - N/A   Unknown
8:30 AM 44.6 °F 42.2 °F 42.8 °F 93% 30.33 in 5.0 mi East 4.6 mph - N/A   Unknown
8:47 AM 48 °F - 46 °F 89% 30.36 in 5 mi East 3.5 mph - -   Clear
9:00 AM 48.2 °F - 46.4 °F 93% 30.33 in 5.0 mi East 3.5 mph - N/A   Unknown
9:30 AM 51.8 °F - 46.4 °F 82% 30.33 in 5.0 mi ESE 4.6 mph - N/A   Unknown
10:00 AM 55.4 °F - 46.4 °F 72% 30.36 in 5.0 mi Variable 2.3 mph - N/A   Unknown
10:30 AM 57.2 °F - 44.6 °F 63% 30.36 in 5.0 mi NNW 3.5 mph - N/A   Unknown
11:00 AM 57.2 °F - 42.8 °F 59% 30.39 in 5.0 mi North 6.9 mph - N/A   Unknown
11:30 AM 59.0 °F - 44.6 °F 59% 30.36 in 5.0 mi Variable 2.3 mph - N/A   Unknown
12:00 PM 62 °F - 44 °F 41% 30.35 in 5 mi South 2.3 mph - -   Clear
12:00 PM 62.6 °F - 44.6 °F 52% 30.36 in 5.0 mi Variable 2.3 mph - N/A   Unknown
12:30 PM 62.6 °F - 42.8 °F 48% 30.36 in 5.0 mi North 3.5 mph - N/A   Unknown
1:00 PM 64.4 °F - 42.8 °F 45% 30.33 in 5.0 mi North 3.5 mph - N/A   Unknown
1:30 PM 64.4 °F - 44.6 °F 49% 30.30 in 5.0 mi East 3.5 mph - N/A   Unknown
2:00 PM 66.2 °F - 42.8 °F 43% 30.30 in 5.0 mi Variable 3.5 mph - N/A   Unknown
2:30 PM 66.2 °F - 41.0 °F 40% 30.30 in 5.0 mi North 4.6 mph - N/A   Unknown
2:45 PM 67 °F - 45 °F 34% 30.27 in 6 mi North 6.9 mph - -   Clear
3:00 PM 68.0 °F - 44.6 °F 43% 30.30 in - North 6.9 mph - N/A   Clear
3:30 PM 68.0 °F - 44.6 °F 43% 30.30 in - NNW 8.1 mph - N/A   Clear
4:00 PM 68.0 °F - 44.6 °F 43% 30.30 in - NNW 8.1 mph - N/A   Clear
4:30 PM 68.0 °F - 48.2 °F 49% 30.30 in 6.2 mi North 8.1 mph - N/A   Scattered Clouds
5:00 PM 66.2 °F - 48.2 °F 52% 30.33 in 6.2 mi North 8.1 mph - N/A   Scattered Clouds
5:30 PM 66.2 °F - 50.0 °F 56% 30.33 in 6.2 mi NNE 6.9 mph - N/A   Scattered Clouds
6:00 PM 64 °F - 49 °F 47% 30.30 in 6 mi NNE 4.6 mph - -   Scattered Clouds
6:00 PM 64.4 °F - 48.2 °F 56% 30.33 in 6.2 mi NNE 4.6 mph - N/A   Scattered Clouds
6:30 PM 62.6 °F - 50.0 °F 63% 30.30 in - NE 3.5 mph - N/A   Clear
7:00 PM 62.6 °F - 51.8 °F 68% 30.33 in - NNE 5.8 mph - N/A   Clear
7:30 PM 60.8 °F - 50.0 °F 68% 30.33 in - NE 6.9 mph - N/A   Clear
8:00 PM 59.0 °F - 50.0 °F 72% 30.33 in - ENE 5.8 mph - N/A   Clear
8:30 PM 57.2 °F - 50.0 °F 77% 30.33 in - East 5.8 mph - N/A   Clear
9:00 PM 57 °F - 49 °F 66% 30.33 in 6 mi ESE 8.1 mph - -   Clear
9:00 PM 57.2 °F - 48.2 °F 72% 30.33 in - ESE 6.9 mph - N/A   Clear
9:30 PM 57.2 °F - 48.2 °F 72% 30.33 in - ESE 9.2 mph - N/A   Clear
10:00 PM 55.4 °F - 48.2 °F 77% 30.33 in - East 8.1 mph - N/A   Clear
10:30 PM 53.6 °F - 48.2 °F 82% 30.33 in - ESE 6.9 mph - N/A   Clear
11:00 PM 53.6 °F - 46.4 °F 77% 30.33 in - East 4.6 mph - N/A   Clear
11:30 PM 51.8 °F - 46.4 °F 82% 30.30 in - ENE 4.6 mph - N/A   Clear